Radiation Dose at Monitoring Post of Fukushima Daini Nuclear Power Station
Date,Time,MP-1(microSv/h),MP-2(microSv/h),MP-3(microSv/h),MP-4(microSv/h),MP-5(microSv/h),MP-6(microSv/h),MP-7(microSv/h),Wind Direction,Wind Velocity(m/s),Rain
2020/10/05,00:00,0.177,0.158,0.257,0.246,0.244,0.139,0.085,south,6.1,No
2020/10/05,00:10,0.179,0.160,0.259,0.245,0.244,0.139,0.084,south,5.4,No
2020/10/05,00:20,0.177,0.160,0.257,0.247,0.245,0.139,0.085,south,5.2,No
2020/10/05,00:30,0.178,0.160,0.258,0.245,0.244,0.140,0.084,south-southeast,6.0,No
2020/10/05,00:40,0.178,0.160,0.258,0.245,0.246,0.139,0.084,south-southeast,6.3,No
2020/10/05,00:50,0.176,0.159,0.258,0.246,0.244,0.139,0.085,south,5.3,No
2020/10/05,01:00,0.179,0.160,0.259,0.245,0.246,0.140,0.084,south,4.1,No
2020/10/05,01:10,0.177,0.159,0.258,0.246,0.245,0.139,0.085,south-southwest,3.6,No
2020/10/05,01:20,0.179,0.161,0.259,0.244,0.243,0.140,0.084,south-southwest,4.6,No
2020/10/05,01:30,0.177,0.160,0.257,0.245,0.248,0.139,0.085,south-southwest,4.6,No
2020/10/05,01:40,0.177,0.160,0.259,0.244,0.243,0.139,0.084,south,4.2,No
2020/10/05,01:50,0.176,0.160,0.258,0.243,0.245,0.140,0.084,south,4.9,No
2020/10/05,02:00,0.176,0.160,0.258,0.246,0.245,0.139,0.084,south,5.8,No
2020/10/05,02:10,0.178,0.159,0.259,0.243,0.244,0.140,0.084,south,4.8,Yes
2020/10/05,02:20,0.177,0.160,0.257,0.246,0.246,0.140,0.085,south,5.0,No
2020/10/05,02:30,0.178,0.159,0.259,0.244,0.244,0.139,0.084,south,4.8,No
2020/10/05,02:40,0.178,0.159,0.257,0.245,0.246,0.140,0.084,south,5.4,Yes
2020/10/05,02:50,0.177,0.161,0.258,0.247,0.245,0.139,0.085,south,5.6,Yes
2020/10/05,03:00,0.178,0.160,0.258,0.243,0.245,0.140,0.085,south,4.6,Yes
2020/10/05,03:10,0.177,0.161,0.258,0.246,0.246,0.141,0.085,south,5.0,No
2020/10/05,03:20,0.179,0.161,0.260,0.243,0.245,0.140,0.084,south-southwest,4.6,Yes
2020/10/05,03:30,0.178,0.160,0.258,0.247,0.247,0.141,0.085,south,5.1,Yes
2020/10/05,03:40,0.178,0.161,0.260,0.247,0.244,0.141,0.086,south,5.3,Yes
2020/10/05,03:50,0.178,0.159,0.258,0.246,0.245,0.140,0.085,south-southwest,3.2,No
2020/10/05,04:00,0.177,0.161,0.260,0.248,0.247,0.141,0.085,southwest,4.2,No
2020/10/05,04:10,0.179,0.161,0.257,0.244,0.244,0.140,0.084,southwest,3.0,No
2020/10/05,04:20,0.178,0.161,0.257,0.245,0.247,0.139,0.084,south-southwest,2.9,No
2020/10/05,04:30,0.177,0.160,0.260,0.245,0.246,0.139,0.084,west-southwest,4.5,No
2020/10/05,04:40,0.178,0.160,0.256,0.245,0.244,0.140,0.085,south-southwest,4.9,Yes
2020/10/05,04:50,0.177,0.160,0.260,0.246,0.247,0.140,0.085,southwest,4.3,Yes
2020/10/05,05:00,0.179,0.159,0.257,0.246,0.244,0.140,0.085,south-southwest,5.3,No
2020/10/05,05:10,0.177,0.161,0.258,0.246,0.247,0.139,0.084,south-southwest,4.7,No
2020/10/05,05:20,0.178,0.159,0.259,0.244,0.245,0.140,0.085,south-southwest,3.0,No
2020/10/05,05:30,0.178,0.161,0.258,0.247,0.245,0.140,0.084,south,1.8,Yes
2020/10/05,05:40,0.177,0.161,0.259,0.245,0.247,0.141,0.085,south-southwest,2.2,Yes
2020/10/05,05:50,0.179,0.161,0.259,0.246,0.245,0.141,0.085,southwest,3.4,Yes
2020/10/05,06:00,0.179,0.161,0.261,0.247,0.248,0.141,0.086,south-southwest,4.6,Yes
2020/10/05,06:10,0.181,0.163,0.262,0.247,0.248,0.142,0.087,southwest,6.3,Yes
2020/10/05,06:20,0.181,0.163,0.261,0.249,0.248,0.142,0.087,west-southwest,6.8,Yes
2020/10/05,06:30,0.180,0.162,0.260,0.247,0.247,0.142,0.087,southwest,8.6,No
2020/10/05,06:40,0.181,0.162,0.260,0.248,0.245,0.142,0.086,southwest,10.1,No
2020/10/05,06:50,0.178,0.163,0.261,0.247,0.248,0.141,0.085,southwest,6.2,No
2020/10/05,07:00,0.180,0.161,0.258,0.247,0.246,0.141,0.085,southwest,4.8,No
2020/10/05,07:10,0.178,0.160,0.261,0.248,0.246,0.141,0.086,west-southwest,5.1,No
2020/10/05,07:20,0.179,0.159,0.258,0.243,0.247,0.140,0.085,south-southwest,5.9,No
2020/10/05,07:30,0.179,0.160,0.259,0.247,0.244,0.141,0.085,south,5.2,No
2020/10/05,07:40,0.178,0.160,0.260,0.244,0.247,0.139,0.086,south,5.8,No
2020/10/05,07:50,0.180,0.160,0.258,0.246,0.245,0.140,0.085,south-southwest,4.0,No
2020/10/05,08:00,0.178,0.161,0.260,0.245,0.244,0.141,0.086,south-southwest,6.2,No
2020/10/05,08:10,0.178,0.160,0.258,0.244,0.247,0.139,0.085,south-southwest,5.2,No
2020/10/05,08:20,0.179,0.160,0.258,0.246,0.243,0.140,0.084,southwest,5.2,No
2020/10/05,08:30,0.178,0.160,0.258,0.243,0.246,0.139,0.085,south-southwest,5.1,No
2020/10/05,08:40,0.179,0.159,0.257,0.244,0.245,0.139,0.084,south,3.6,No
2020/10/05,08:50,0.178,0.160,0.259,0.246,0.243,0.140,0.084,south-southeast,3.0,No
2020/10/05,09:00,0.177,0.160,0.259,0.245,0.244,0.140,0.085,south,2.6,No
2020/10/05,09:10,0.179,0.160,0.256,0.244,0.246,0.139,0.084,south,2.8,No
2020/10/05,09:20,0.179,0.160,0.260,0.247,0.244,0.140,0.084,south-southeast,2.7,No
2020/10/05,09:30,0.177,0.160,0.259,0.245,0.245,0.140,0.085,south-southeast,2.9,No
2020/10/05,09:40,0.180,0.160,0.257,0.246,0.246,0.140,0.085,south,3.9,No
2020/10/05,09:50,0.178,0.160,0.259,0.247,0.243,0.140,0.084,south,2.6,No
2020/10/05,10:00,0.177,0.160,0.258,0.244,0.246,0.140,0.085,south-southeast,1.8,No
2020/10/05,10:10,0.179,0.160,0.257,0.246,0.247,0.139,0.084,south,1.5,No
2020/10/05,10:20,0.177,0.160,0.260,0.245,0.244,0.140,0.085,south,1.1,No
2020/10/05,10:30,0.177,0.159,0.258,0.244,0.245,0.140,0.086,south-southeast,1.1,No
2020/10/05,10:40,0.179,0.160,0.256,0.247,0.247,0.139,0.085,southeast,1.6,No
2020/10/05,10:50,0.178,0.160,0.259,0.246,0.246,0.140,0.084,south,0.7,No
2020/10/05,11:00,0.177,0.160,0.259,0.245,0.242,0.140,0.085,north,1.2,No
2020/10/05,11:10,0.179,0.161,0.257,0.245,0.246,0.140,0.084,north,1.4,No
2020/10/05,11:20,0.179,0.160,0.260,0.247,0.246,0.138,0.084,north-northwest,1.4,No
2020/10/05,11:30,0.176,0.160,0.260,0.244,0.245,0.141,0.085,north,2.4,No
2020/10/05,11:40,0.178,0.160,0.257,0.243,0.244,0.140,0.085,north-northwest,3.8,No
2020/10/05,11:50,0.179,0.161,0.259,0.247,0.248,0.140,0.085,northwest,5.2,Yes
2020/10/05,12:00,0.177,0.160,0.260,0.246,0.246,0.140,0.085,west-northwest,5.1,Yes
2020/10/05,12:10,0.179,0.161,0.258,0.243,0.244,0.141,0.085,west-northwest,3.8,Yes
2020/10/05,12:20,0.180,0.162,0.261,0.246,0.247,0.141,0.085,west-northwest,4.2,No
2020/10/05,12:30,0.178,0.162,0.260,0.247,0.248,0.141,0.085,west-northwest,4.5,No
2020/10/05,12:40,0.178,0.161,0.257,0.245,0.243,0.141,0.085,northwest,3.8,Yes
2020/10/05,12:50,0.180,0.161,0.260,0.248,0.248,0.139,0.085,northwest,3.2,No
2020/10/05,13:00,0.178,0.160,0.260,0.245,0.246,0.140,0.084,north-northwest,3.6,No
2020/10/05,13:10,0.178,0.160,0.256,0.244,0.244,0.140,0.086,north-northwest,4.8,No
2020/10/05,13:20,0.180,0.162,0.261,0.249,0.244,0.140,0.084,north-northwest,4.8,No
2020/10/05,13:30,0.177,0.160,0.260,0.245,0.246,0.140,0.085,north-northwest,4.0,No
2020/10/05,13:40,0.178,0.161,0.257,0.245,0.245,0.139,0.084,north-northwest,2.7,No
2020/10/05,13:50,0.179,0.162,0.260,0.248,0.242,0.140,0.085,north-northwest,3.0,No
2020/10/05,14:00,0.177,0.160,0.260,0.245,0.247,0.140,0.084,north-northwest,2.5,No
2020/10/05,14:10,0.177,0.161,0.257,0.244,0.247,0.140,0.085,north-northwest,3.5,No
2020/10/05,14:20,0.178,0.162,0.259,0.246,0.244,0.141,0.085,north,2.1,No
2020/10/05,14:30,0.180,0.161,0.259,0.246,0.244,0.139,0.084,north-northeast,3.4,No
2020/10/05,14:40,0.177,0.160,0.256,0.243,0.247,0.138,0.084,north-northeast,2.9,No
2020/10/05,14:50,0.178,0.161,0.258,0.245,0.245,0.139,0.085,north-northeast,3.8,No
2020/10/05,15:00,0.178,0.160,0.259,0.247,0.244,0.140,0.085,north-northeast,5.1,No
2020/10/05,15:10,0.178,0.160,0.259,0.246,0.248,0.139,0.083,north-northeast,4.3,No
2020/10/05,15:20,0.178,0.162,0.259,0.244,0.246,0.139,0.085,north,3.6,No
2020/10/05,15:30,0.178,0.161,0.259,0.248,0.243,0.141,0.086,north,2.9,No
2020/10/05,15:40,0.177,0.160,0.257,0.245,0.246,0.139,0.083,north,3.9,No
2020/10/05,15:50,0.178,0.162,0.260,0.246,0.246,0.139,0.085,north,3.6,No
2020/10/05,16:00,0.179,0.160,0.259,0.246,0.244,0.139,0.084,north,3.3,No
2020/10/05,16:10,0.178,0.160,0.258,0.244,0.246,0.140,0.084,northwest,6.6,No
2020/10/05,16:20,0.179,0.161,0.262,0.247,0.246,0.140,0.085,northwest,5.5,No
2020/10/05,16:30,0.178,0.160,0.258,0.246,0.243,0.141,0.084,northwest,6.5,No
2020/10/05,16:40,0.178,0.161,0.262,0.246,0.246,0.139,0.085,northwest,3.2,No
2020/10/05,16:50,0.179,0.160,0.258,0.247,0.246,0.140,0.085,northwest,3.9,No
2020/10/05,17:00,0.176,0.161,0.260,0.245,0.244,0.141,0.085,northwest,6.0,No
2020/10/05,17:10,0.180,0.159,0.260,0.246,0.247,0.140,0.085,north-northwest,5.4,No
2020/10/05,17:20,0.178,0.161,0.257,0.245,0.245,0.140,0.084,northwest,4.3,No
2020/10/05,17:30,0.177,0.161,0.261,0.247,0.244,0.140,0.085,west-northwest,5.1,No
2020/10/05,17:40,0.179,0.160,0.258,0.247,0.246,0.140,0.084,northwest,4.5,No
2020/10/05,17:50,0.178,0.162,0.261,0.246,0.244,0.140,0.083,northwest,5.8,No
2020/10/05,18:00,0.180,0.159,0.258,0.246,0.247,0.139,0.085,northwest,6.1,No
2020/10/05,18:10,0.179,0.162,0.259,0.246,0.245,0.140,0.084,northwest,8.4,No
2020/10/05,18:20,0.179,0.160,0.260,0.248,0.248,0.140,0.085,northwest,5.4,No
2020/10/05,18:30,0.178,0.162,0.261,0.246,0.246,0.141,0.084,northwest,5.3,No
2020/10/05,18:40,0.178,0.160,0.260,0.247,0.246,0.139,0.086,northwest,6.7,No
2020/10/05,18:50,0.179,0.162,0.259,0.245,0.247,0.139,0.084,northwest,5.9,No
2020/10/05,19:00,0.177,0.160,0.260,0.248,0.245,0.141,0.084,northwest,5.0,No
2020/10/05,19:10,0.179,0.161,0.258,0.246,0.247,0.140,0.085,north-northwest,3.5,No
2020/10/05,19:20,0.179,0.160,0.260,0.246,0.244,0.141,0.085,north-northwest,3.4,No
2020/10/05,19:30,0.178,0.161,0.258,0.247,0.247,0.140,0.084,northwest,4.1,No
2020/10/05,19:40,0.179,0.161,0.260,0.245,0.245,0.140,0.084,northwest,3.5,No
2020/10/05,19:50,0.178,0.160,0.258,0.246,0.245,0.140,0.085,north-northwest,2.4,No
2020/10/05,20:00,0.179,0.161,0.260,0.245,0.248,0.141,0.085,northwest,3.3,No
2020/10/05,20:10,0.179,0.160,0.259,0.247,0.245,0.140,0.086,north-northwest,3.4,No
2020/10/05,20:20,0.179,0.162,0.258,0.245,0.246,0.141,0.084,northwest,2.5,No
2020/10/05,20:30,0.178,0.160,0.259,0.247,0.245,0.140,0.084,north-northwest,3.2,No
2020/10/05,20:40,0.178,0.161,0.258,0.245,0.248,0.140,0.085,north-northwest,4.3,No
2020/10/05,20:50,0.178,0.160,0.260,0.246,0.246,0.140,0.084,north-northwest,3.5,No
2020/10/05,21:00,0.178,0.162,0.258,0.246,0.246,0.139,0.084,northwest,2.6,No
2020/10/05,21:10,0.179,0.160,0.259,0.247,0.245,0.141,0.084,north-northwest,3.2,No
2020/10/05,21:20,0.178,0.161,0.258,0.246,0.243,0.139,0.085,north-northwest,2.3,No
2020/10/05,21:30,0.180,0.160,0.261,0.246,0.247,0.140,0.084,northwest,4.7,No
2020/10/05,21:40,0.179,0.161,0.258,0.246,0.244,0.139,0.085,north,1.5,No
2020/10/05,21:50,0.180,0.161,0.261,0.245,0.247,0.141,0.084,north-northwest,3.2,No
2020/10/05,22:00,0.178,0.160,0.258,0.247,0.245,0.140,0.085,northwest,2.9,No
2020/10/05,22:10,0.178,0.159,0.260,0.244,0.246,0.140,0.084,north-northeast,2.5,No
2020/10/05,22:20,0.178,0.161,0.258,0.247,0.245,0.140,0.084,north-northwest,3.2,No
2020/10/05,22:30,0.178,0.161,0.261,0.246,0.246,0.140,0.084,north,2.8,No
2020/10/05,22:40,0.179,0.161,0.259,0.247,0.246,0.140,0.085,north-northwest,3.8,No
2020/10/05,22:50,0.178,0.160,0.260,0.245,0.245,0.140,0.084,north-northwest,3.1,No
2020/10/05,23:00,0.178,0.161,0.259,0.247,0.247,0.139,0.085,northwest,3.2,No
2020/10/05,23:10,0.179,0.161,0.261,0.246,0.244,0.140,0.085,north,2.9,No
2020/10/05,23:20,0.178,0.161,0.259,0.246,0.246,0.140,0.084,northwest,4.3,No
2020/10/05,23:30,0.177,0.160,0.260,0.245,0.244,0.140,0.084,northwest,5.5,No
2020/10/05,23:40,0.178,0.161,0.259,0.247,0.247,0.140,0.084,west-northwest,4.6,No
2020/10/05,23:50,0.179,0.161,0.260,0.246,0.245,0.140,0.085,northwest,6.4,No
